sat.trackr.live / text

‹ back to catalog

STARLINK-34110

NORAD 63811 · 2025-092H

PAYLOAD ACTIVE UNKNOWN

§ Identity

Operator
Country
US
Launch date
2025-05-04
Launch site
AFETR
Launch vehicle
Mass (kg)
RCS (m²)

Purposes: comms

External: N2YO · Heavens-Above · Gunter

§ Orbital elements

Epoch: 2026-05-25T04:00:03.998880Z

Period
90.10 min
Inclination
42.9848°
Eccentricity
0.0024339
Mean motion
15.98262284 rev/d
Perigee alt
263.0 km
Apogee alt
295.4 km
Semi-major
6,657.4 km
B*
1.0213e-3
RAAN
63.3051°
Arg perigee
213.1179°
Mean anomaly
214.6929°
Rev number
591

§ Raw data

STARLINK-341101 63811U 25092H   26145.16671295  .00507410  11630-3  10213-2 0  99922 63811  42.9848  63.3051 0024339 213.1179 214.6929 15.98262284  5914

JSON: /api/v1/satellites/63811 · /tle

For live sub-satellite position, see the globe view (requires WebGL).

§ Visibility from observer

Set your observer location to see the next 7 days of passes ≥ 10°. The values pass through the URL so the page stays shareable.

No JS? Fill the form by hand. The geolocation button needs JavaScript.